Regional Weather Roundup
Issued by NWS

Home | Current Version | Previous Version | Graphics & Text | Print | Product List | Glossary Off
Versions: 1 2 3 4 5 6 7 8 9 10 11 12 13 14 15 16 17 18 19 20 21 22 23 24 25 26 27 28 29 30 31 32 33 34 35 36 37 38 39 40 41 42 43 44 45 46 47 48 49 50

000
ASUS43 KDMX 180806
RWRIA

WEATHER ROUNDUP FOR IOWA
NATIONAL WEATHER SERVICE DES MOINES IA
200 AM CST SAT NOV 18 2017

NOTE: "FAIR" INDICATES FEW OR NO CLOUDS BELOW 12,000 FEET WITH NO
SIGNIFICANT WEATHER AND/OR OBSTRUCTIONS TO VISIBILITY.

* - THESE STATIONS ARE NOT NWS STATIONS...THUS NOT UNDER NWS
QUALITY CONTROL.  THEY ALSO DO NOT REPORT WEATHER SUCH
AS PRECIPITATION OR FOG.

IAZ001>003-012>014-020>022-031>034-043>046-180900-
   NORTHWEST IOWA

CITY           SKY/WX    TMP DP  RH WIND       PRES   REMARKS
CARROLL *      LGT RAIN  39  37  93 N14       29.63F WCI  31
CHEROKEE *     CLOUDY    36  36  98 N13G20    29.69R WCI  28
DENISON *      CLOUDY    39  39 100 NE14      29.63F WCI  31
LE MARS *      CLOUDY    36  34  93 N9        29.71S WCI  29
ORANGE CITY *  CLOUDY    36  34  93 N8        29.70R WCI  29
SHELDON *      CLOUDY    34  32  93 N12       29.69R WCI  25
SIOUX CITY     CLOUDY    38  36  92 N16       29.70R WCI  29
SPENCER        CLOUDY    36  33  89 N15       29.69R WCI  27
STORM LAKE *   CLOUDY    37  36  93 N17       29.66R FOG     WCI  28
$$

IAZ055>058-069>071-079>083-090>094-180900-
   SOUTHWEST IOWA

CITY           SKY/WX    TMP DP  RH WIND       PRES   REMARKS
ATLANTIC *     CLOUDY    41  41 100 N16G24    29.57F
AUDUBON *      RAIN      39  37  93 N20G25    29.58F WCI  30
CLARINDA *     CLOUDY    46  46 100 NE16G22     N/A
COUNCIL BLFS * LGT RAIN  41  41 100 N18G32    29.57F
CRESTON *      CLOUDY    45  43  93 NE14G24   29.55R FOG
HARLAN  *      CLOUDY    41  41 100 N17G24    29.61F
LAMONI         CLOUDY    48  48 100 NE14      29.52R FOG
RED OAK *      CLOUDY    45  43  93 NE15      29.56R
SHENANDOAH *   CLOUDY    46  43  87 NE15      29.57R
$$

IAZ047>049-059>061-072>074-084-180900-
   CENTRAL IOWA

CITY           SKY/WX    TMP DP  RH WIND       PRES   REMARKS
AMES           CLOUDY    42  41  96 N14       29.58F
ANKENY *       CLOUDY    43  41  93 N18G28    29.58F
BOONE *        CLOUDY    41  39  93 N15G21    29.59S
CHARITON *     CLOUDY    45  45 100 N17G24    29.51F FOG
DES MOINES     CLOUDY    44  42  93 N17       29.56S
GRINNELL*      CLOUDY    41  40  97 N9G18     29.57R FOG
KNOXVILLE *    CLOUDY    45  45 100 N12G17    29.53S FOG
MARSHALLTOWN   CLOUDY    40  39  97 N17G26    29.58S WCI  31
NEWTON *       CLOUDY    43  41  93 N13       29.57R FOG
PELLA *        CLOUDY    43  42  96 N16G22    29.56F FOG
PERRY *        CLOUDY    42  40  95 N14G24    29.59F
$$

IAZ004>006-015-016-023>025-035-036-180900-
   NORTH CENTRAL IOWA

CITY           SKY/WX    TMP DP  RH WIND       PRES   REMARKS
ALGONA *       CLOUDY    37  37 100 N16G23    29.65R FOG     WCI  28
CLARION *      CLOUDY    37  37 100 N14       29.60F WCI  29
ESTHERVILLE    CLOUDY    34  34 100 N13       29.67F WCI  25
FORT DODGE *   LGT RAIN  38  36  92 N10       29.64R WCI  31
MASON CITY     LGT RAIN  36  35  96 N13       29.64F WCI  27
FOREST CITY *  LGT RAIN  36  36 100 N14G21    29.64R WCI  27
WEBSTER CITY * MIX PCPN  39  37  93 N14       29.59S WCI  31
IOWA FALLS *   CLOUDY    39  38  96 N14       29.61F WCI  31
$$

IAZ007>011-017>019-026>030-037>042-050>054-066-180900-
   NORTHEAST IOWA

CITY           SKY/WX    TMP DP  RH WIND       PRES   REMARKS
CEDAR RAPIDS   CLOUDY    42  41  96 N10       29.55R FOG
CHARLES CITY * LGT RAIN  37  37 100 N9        29.63R WCI  31
CLINTON *      CLOUDY    43  42  97 NE7       29.52F FOG
DECORAH *      CLOUDY    37  37 100 N10G16    29.61R WCI  30
DUBUQUE        CLOUDY    39  38  96 N15       29.55R FOG     WCI  31
MONTICELLO *   CLOUDY    41  41 100 N8        29.55R
OELWEIN *      MIX PCPN  39  39 100 N13       29.60R WCI  32
WATERLOO       CLOUDY    39  37  92 N13       29.61R WCI  31
$$

IAZ064-065-067-068-078-180900-
   EAST CENTRAL IOWA

CITY           SKY/WX    TMP DP  RH WIND       PRES   REMARKS
DAVENPORT      CLOUDY    43  42  97 NE6       29.54F FOG
IOWA CITY      CLOUDY    46  43  89 N9        29.56R FOG
MT. PLEASANT * CLOUDY    46  46 100 N12       29.50S FOG
MUSCATINE *    CLOUDY    46  45  93 N6        29.52S FOG
QUAD CITIES    CLOUDY    46  43  89 NE5       29.51S FOG
$$

IAZ062-063-075>077-085>089-095>099-180900-
   SOUTHEAST IOWA

CITY           SKY/WX    TMP DP  RH WIND       PRES   REMARKS
BURLINGTON     LGT RAIN  51  50  96 N8        29.47S FOG
FAIRFIELD *    CLOUDY    46  45  93 N13       29.50S FOG
FORT MADISON * CLOUDY    52  52 100 N7        29.48S FOG
KEOKUK *       CLOUDY    52  50  93 MISG      29.46S FOG
OSKALOOSA *    CLOUDY    43  43  98 N12       29.54R FOG
OTTUMWA        CLOUDY    46  44  93 N14       29.53R FOG
WASHINGTON *   CLOUDY    45  45 100 N10       29.53S FOG
$$

ABBREVIATIONS USED IN REMARKS
   TC - TEMPERATURES IN CELSIUS
  WCI - WIND CHILL INDEX
   HX - HEAT INDEX
  VSB - VISIBILITY
$$




USA.gov is the U.S. government's official web portal to all federal, state and local government web resources and services.